Regional Weather Roundup
Issued by NWS

Home | Current Version | Previous Version | Text Only | Print | Product List | Glossary On
Versions: 1 2 3 4 5 6 7 8 9 10 11 12 13 14 15 16 17 18 19 20 21 22 23 24 25 26 27 28 29 30 31 32 33 34 35 36 37 38 39 40 41 42 43 44 45 46 47 48 49 50
000
ASUS43 KLSX 281910
RWRMO

WEATHER SUMMARY FOR MISSOURI
NATIONAL WEATHER SERVICE SPRINGFIELD MO
200 PM CDT THU JUL 28 2016

NOTE: "FAIR" INDICATES FEW OR NO CLOUDS BELOW 12,000 FEET WITH NO
       SIGNIFICANT WEATHER AND/OR OBSTRUCTIONS TO VISIBILITY.
       CURRENT SKY AND/OR WEATHER CONDITIONS ARE NOT AVAILABLE FOR
       CHILLICOTHE AND FARMINGTON.

MOZ001>031-035>038-043-044-053-054-282000-
...NORTHERN AND WESTERN MISSOURI...

CITY           SKY/WX    TMP DP  RH WIND       PRES   REMARKS
KANSAS CTY INT PTSUNNY   87  70  56 N8        29.96F HX  92
KANSAS C DTWN  MOSUNNY   91  66  43 VRB7      29.94S HX  93
LEE`S SUMMIT   SUNNY     89  68  49 N12G18    29.96S HX  93
ST JOSEPH      MOSUNNY   86  70  58 N8G18     29.96F HX  90
CHILLICOTHE      N/A     85  71  63 VRB5      29.95F HX  90
KIRKSVILLE     PTSUNNY   83  69  62 N10G20    29.94F

$$
MOZ066>068-077>081-088>096-101>105-282000-
...SOUTHWEST MISSOURI...

CITY           SKY/WX    TMP DP  RH WIND       PRES   REMARKS
SPRINGFIELD    CLOUDY    89  68  49 S3        29.95F HX  93
JOPLIN         CLOUDY    88  76  67 NW6       29.96S HX  99
BRANSON        PTSUNNY   90  72  55 SW3       29.98F HX  96

$$
MOZ032>034-039>042-045>050-055>058-069>072-282000-
...CENTRAL MISSOURI...

CITY           SKY/WX    TMP DP  RH WIND       PRES   REMARKS
COLUMBIA       CLOUDY    86  74  67 NW7       29.93F HX  94
JEFFERSON CITY CLOUDY    84  75  74 CALM      29.91F HX  92
ROLLA          MOSUNNY   86  70  58 N7        29.93F HX  90
SEDALIA        PTSUNNY   88  77  69 N9        29.94F HX 100
WHITEMAN AFB   PTSUNNY   87  74  64 N10       29.92  HX  95
OSAGE BEACH    CLOUDY    86  74  67 CALM      29.93F HX  94

$$
MOZ051-052-059>065-282000-
...EAST CENTRAL MISSOURI...

CITY           SKY/WX    TMP DP  RH WIND       PRES   REMARKS
ST LOUIS INTL  MOSUNNY   90  71  53 NW10G20   29.90F HX  96
SPIRIT OF STL  MOSUNNY   89  70  53 NW7       29.88F HX  94
ST CHARLES     MOSUNNY   88  73  61 W9        29.89S HX  95

$$
MOZ072>076-082>087-097>100-106>115-282000-
...SOUTH CENTRAL AND SOUTHEAST MISSOURI...

CITY           SKY/WX    TMP DP  RH WIND       PRES   REMARKS
CAPE GIRARDEAU PTSUNNY   84  75  74 SW7       29.90S HX  92
FARMINGTON     PTSUNNY   87  73  62 VRB3      29.92F HAZE    HX  94
POPLAR BLUFF   SUNNY     87  78  74 S7        29.89F HX 100
WEST PLAINS    SUNNY     90  70  51 VRB6      29.97F HX  95

$$




USA.gov is the U.S. government's official web portal to all federal, state and local government web resources and services.